Regional Weather Roundup
Issued by NWS

Home | Current Version | Previous Version | Text Only | Print | Product List | Glossary Off
Versions: 1 2 3 4 5 6 7 8 9 10 11 12 13 14 15 16 17 18 19 20 21 22 23 24 25 26 27 28 29 30 31 32 33 34 35 36 37 38 39 40 41 42 43 44 45 46 47 48 49 50

000
ASUS43 KFSD 280810
RWRSD

WEATHER ROUNDUP FOR SOUTH DAKOTA
NATIONAL WEATHER SERVICE SIOUX FALLS SD
200 AM CST WED JAN 28 2015

NOTE: "FAIR" INDICATES FEW OR NO CLOUDS BELOW 12,000 FEET WITH NO
SIGNIFICANT WEATHER AND/OR OBSTRUCTIONS TO VISIBILITY.


SDZ001>005-009-010-012>017-280900-
NORTHWEST AND NORTH CENTRAL SOUTH DAKOTA

CITY           SKY/WX    TMP DP  RH WIND       PRES   REMARKS
BUFFALO          N/A     43  31  62 W9        29.72F
FAITH            N/A     43  28  55 NW8       29.74F
MOBRIDGE       PTCLDY    34  32  92 SE7       29.72F WCI  28
$$

SDZ012>016-024>037-041>051-057-063-072>074-280900-
SOUTHWEST AND SOUTH CENTRAL SOUTH DAKOTA

CITY           SKY/WX    TMP DP  RH WIND       PRES   REMARKS
RAPID CTY ARPT PTCLDY    51  27  39 NW13      29.77F
PIERRE         PTCLDY    35  32  88 E3        29.73F
CUSTER         PTCLDY    44  26  49 W9        29.88F
ELLSWORTH AFB  CLOUDY    42  27  55 W8        29.76F
PHILIP         MOCLDY    45  30  55 NW10      29.74F
PINE RIDGE     PTCLDY    39  27  62 SW5       29.85F
WINNER         FAIR      48  32  53 SW10      29.76F
$$

SDZ004>011-016>023-039-040-280900-
NORTHEAST SOUTH DAKOTA

CITY           SKY/WX    TMP DP  RH WIND       PRES   REMARKS
ABERDEEN       MOCLDY    32  30  92 S6        29.80F WCI  26
WATERTOWN      CLEAR     33  30  88 S13       29.83F WCI  24
SISSETON         N/A     32  32 100 S16       29.86F WCI  21
$$

SDZ017-020-022-023-036>040-048>070-280900-
SOUTHEAST SOUTH DAKOTA

CITY           SKY/WX    TMP DP  RH WIND       PRES   REMARKS
SIOUX FALLS    PTCLDY    35  30  82 S13       29.90F WCI  26
HURON          PTCLDY    35  31  85 SE13      29.80F WCI  26
CHAMBERLAIN    PTCLDY    33  31  93 SE5       29.76F WCI  28
MITCHELL       MOCLDY    36  31  82 SE14      29.83F
YANKTON        CLEAR     34  28  80 E9        29.89F WCI  26
$$

ABBREVIATIONS USED IN REMARKS
   TC - TEMPERATURE IN CELSIUS
  WCI - WIND CHILL INDEX
   HX - HEAT INDEX
  VSB - VISIBILITY




USA.gov is the U.S. government's official web portal to all federal, state and local government web resources and services.